Location: Cabeza de los Veneras
(40.2000°N, 5.2000°W)
Time: 19:36:30
(UTC+00:00)

BlueWalker 3 - Pass Details

Date: 29 June 2024
Orbit: 480 x 491 km, 53.2° (Epoch: 24 July)

Event Time Altitude Azimuth Distance (km) Brightness Sun altitude
Rises 21:58:24 0° 315° (NW) 2,542 7.1 -18.1°
Reaches altitude 10° 22:01:20 10° 340° (NNW) 1,659 5.7 -18.4°
Maximum altitude 22:03:33 15° 16° (NNE) 1,377 4.6 -18.6°
Drops below altitude 10° 22:05:46 10° 53° (NE) 1,656 4.6 -18.9°
Enters shadow 22:07:10 - 67° (ENE) 2,034 4.9 -19.0°
